Theta_e
312 311 309 309 309 309 315 323 326 322 324 328 325 326 326 318 326 327 328 331 332 334 333 332 330 330 330 329 330 329 329 329 329 329 328 327 327 327 327 333 336 336 336 337
312 310 309 309 309 307 312 324 324 320 323 329 330 329 326 326 324 324 326 327 331 332 333 333 331 331 331 330 329 330 330 329 330 330 328 327 326 327 328 328 330 333 335 334
311 310 309 309 309 308 313 324 323 326 327 327 330 333 334 334 330 328 328 327 329 332 334 334 333 332 332 331 331 334 332 331 331 332 332 329 327 326 328 328 328 329 331 332
311 310 310 310 309 310 314 324 325 324 327 329 327 326 329 330 333 331 329 328 327 331 334 334 334 334 334 336 338 333 332 331 332 332 331 328 328 326 326 327 328 329 329 330
310 310 310 309 308 312 318 320 322 323 322 322 323 322 325 328 329 329 331 332 327 326 331 335 337 335 334 338 338 335 332 332 332 333 330 327 326 327 327 327 328 328 329 329
309 309 310 309 308 310 317 317 317 319 319 320 322 323 324 326 329 329 329 330 331 331 331 332 333 335 335 337 338 336 333 332 333 334 332 328 328 327 328 328 328 328 328 329
307 307 310 309 307 307 313 314 315 319 320 320 321 322 323 325 325 326 328 329 330 330 329 329 331 334 334 335 338 338 335 333 333 334 334 332 330 331 330 330 330 330 330 330
308 307 308 308 307 306 311 313 314 318 320 319 319 319 320 321 322 323 323 323 325 327 328 331 331 334 334 335 335 336 336 336 334 336 336 334 331 332 332 331 331 331 331 330
307 309 309 308 307 307 309 311 311 313 317 318 318 320 320 321 320 321 322 323 323 324 329 331 335 333 335 336 335 335 335 335 337 338 336 338 333 334 335 333 334 342 342 343
308 308 308 309 309 308 308 311 312 312 315 315 316 318 319 320 321 323 323 324 326 324 329 332 333 333 332 336 337 338 337 339 338 338 340 337 340 337 335 336 346 347 347 349
307 308 308 309 309 309 308 311 311 312 314 314 313 314 315 317 318 321 323 324 324 324 329 332 332 335 334 334 335 338 340 339 337 337 339 342 340 339 337 351 349 349 350 352
306 306 306 307 307 309 308 310 311 311 311 313 311 311 312 313 314 317 318 322 324 328 330 332 336 339 337 338 336 335 340 337 336 334 337 346 342 347 346 345 348 348 351 352
308 307 307 308 307 306 309 311 311 312 312 313 312 313 313 313 313 313 317 318 320 323 323 327 333 340 341 346 340 338 337 338 337 335 345 346 346 346 346 345 345 344 346 349
309 308 309 308 307 307 309 311 311 311 311 314 313 311 312 313 314 314 314 315 317 320 322 324 329 336 337 344 342 338 339 340 340 346 347 346 345 342 343 344 343 343 343 346
309 307 307 308 310 307 310 312 312 311 311 313 314 311 311 311 312 313 315 314 316 319 320 324 328 330 334 341 343 342 340 339 337 338 345 344 344 340 341 343 343 343 344 345
307 308 309 310 308 308 310 311 310 311 313 313 314 312 313 312 312 314 314 316 316 317 319 322 324 326 330 337 340 341 338 337 341 344 340 339 337 337 335 342 342 342 344 344
307 309 309 309 308 310 310 313 311 309 310 310 312 316 315 313 313 316 316 315 316 318 319 322 325 327 327 333 340 337 342 343 340 341 339 339 337 337 335 334 335 338 344 344
307 309 309 309 309 309 310 310 309 309 309 310 312 315 315 312 317 317 316 316 317 318 321 323 326 325 329 333 335 342 343 344 342 339 336 338 336 334 335 332 333 332 338 346
307 307 308 309 309 310 311 309 309 310 310 311 311 312 313 310 319 319 317 317 318 319 320 323 326 329 333 332 335 336 336 336 335 335 333 332 332 332 332 331 331 332 332 336
306 309 311 312 311 309 309 310 312 311 312 311 313 314 313 314 318 321 319 318 320 321 322 322 324 328 330 330 330 331 331 330 329 330 330 330 331 330 330 330 331 330 329 331
311 312 312 311 309 310 312 314 313 313 314 313 315 315 313 314 321 324 324 320 321 322 323 324 324 325 325 328 329 328 327 327 327 327 327 327 327 328 328 328 328 328 328 330
311 311 311 312 312 313 313 315 315 316 318 317 318 318 318 321 321 325 327 328 323 325 322 323 324 325 329 332 333 334 336 336 335 334 334 331 328 326 326 325 325 325 325 325
312 313 315 315 315 316 317 319 317 317 315 316 317 318 321 324 321 325 328 328 326 325 325 323 337 337 337 337 337 337 337 337 337 338 339 338 338 338 333 328 325 325 324 325
314 314 318 315 317 317 318 315 312 310 311 313 315 317 322 326 326 325 327 328 329 329 328 332 341 337 334 333 332 333 333 337 340 341 340 341 339 341 338 330 329 329 328 326
313 312 316 315 315 316 316 317 318 318 319 321 321 322 323 328 326 327 326 328 329 326 332 338 336 334 334 334 332 331 332 333 335 338 341 344 342 339 339 334 332 332 332 330
313 313 316 316 316 317 317 318 321 320 317 323 323 324 326 324 325 325 325 326 331 334 334 333 334 334 334 334 333 333 333 332 332 333 336 340 344 343 339 334 333 333 332 332
312 315 315 315 316 316 316 316 316 316 317 319 322 325 326 326 326 324 327 330 332 331 332 335 332 332 331 332 332 332 333 334 332 331 331 337 341 342 342 340 337 334 334 337
Wind_Speed
24 26 31 35 36 41 21 8 5 4 4 8 8 13 15 4 12 10 11 7 15 17 17 14 19 15 13 15 13 18 17 11 10 14 15 19 21 20 21 14 17 15 12 6
21 23 28 32 32 31 17 7 7 2 7 8 10 13 9 12 16 11 10 12 12 11 17 11 17 13 7 7 9 8 12 10 11 13 12 8 14 24 19 21 19 19 16 11
19 20 24 28 30 26 14 5 4 4 5 6 12 14 9 15 9 12 15 12 15 10 14 17 13 14 9 9 13 8 7 13 15 10 11 14 18 19 19 18 15 19 19 19
19 18 22 25 29 21 10 3 4 4 4 2 6 11 12 13 14 8 9 11 17 17 16 16 18 14 13 13 9 6 12 16 16 12 8 8 14 17 20 21 19 17 12 11
16 17 20 21 27 21 7 5 4 8 11 14 13 11 13 14 14 15 12 15 18 16 15 17 15 15 19 18 14 14 16 16 15 11 6 7 11 17 19 18 19 16 17 17
17 16 15 18 21 18 6 9 11 6 8 12 10 10 11 8 7 10 16 14 10 8 8 16 18 18 17 19 11 19 17 14 16 12 15 10 12 13 15 11 11 14 15 13
15 14 12 14 16 13 11 7 10 6 11 11 8 10 6 11 12 14 17 11 10 16 17 20 20 19 19 18 19 13 19 15 13 11 15 14 11 14 14 14 13 13 14 15
14 12 11 13 12 10 10 10 10 6 9 12 12 12 12 12 14 16 18 18 16 14 14 15 14 16 19 21 19 20 18 13 12 13 10 10 17 7 8 11 13 15 18 13
14 12 12 11 11 10 9 7 7 7 7 3 8 9 11 12 12 13 14 14 11 10 10 11 18 18 18 22 22 20 22 17 13 11 14 17 14 10 9 0 7 8 8 7
13 12 12 11 11 10 7 9 7 6 5 12 11 9 10 12 11 10 12 7 10 15 12 12 16 18 21 22 25 19 15 16 16 14 10 15 18 7 6 10 4 6 6 5
13 13 12 13 12 10 7 9 7 11 3 14 19 17 16 11 10 10 10 8 10 8 12 13 12 14 17 20 23 24 18 17 15 14 18 16 13 13 10 6 8 4 4 4
14 13 13 13 12 10 9 13 7 11 7 11 22 22 22 20 18 12 13 14 9 5 5 5 6 11 14 19 17 22 19 14 16 15 11 11 3 12 10 6 8 3 1 4
16 16 16 15 14 12 12 17 13 5 4 12 17 14 20 23 27 23 12 10 13 12 4 6 5 9 9 10 15 15 14 4 11 13 11 8 10 9 9 6 6 2 2 3
16 16 17 16 14 12 12 16 15 9 5 4 10 18 14 15 14 18 22 22 22 9 4 7 8 9 9 8 9 9 7 15 13 7 7 8 7 7 7 4 3 2 3 3
14 14 15 16 14 11 12 14 17 17 6 3 10 23 25 23 23 20 19 21 17 10 9 8 8 9 8 15 7 0 6 8 12 9 17 8 11 7 3 2 3 4 4 4
13 14 12 11 8 7 3 2 10 19 18 3 3 9 16 18 20 19 23 14 12 11 10 8 7 20 10 7 10 14 8 4 14 9 11 12 10 8 5 4 4 5 3 3
12 12 10 8 8 8 4 3 3 6 8 1 3 5 3 14 14 13 12 20 8 10 11 12 11 9 4 6 11 11 14 12 8 13 8 7 6 7 4 3 4 3 3 4
10 8 10 7 6 8 8 11 14 12 2 4 3 5 5 5 4 7 7 8 8 9 10 9 11 10 9 6 17 9 9 9 5 5 1 1 2 1 3 5 6 5 7 4
9 10 10 4 4 3 1 4 6 13 6 2 3 2 3 6 3 4 8 6 8 7 12 12 7 9 6 11 15 3 8 3 1 3 2 0 4 6 8 9 8 8 6 7
7 5 5 2 3 7 6 1 2 3 4 3 3 3 5 4 2 5 9 7 7 9 11 10 10 11 13 14 7 9 9 8 7 9 9 10 11 10 11 9 9 9 9 9
3 3 2 2 4 1 2 2 3 3 3 4 4 7 6 4 3 5 4 6 4 6 12 11 8 11 12 18 16 13 13 12 12 14 15 15 16 14 15 14 14 12 11 10
3 4 4 2 1 2 3 3 3 4 3 3 5 1 4 6 3 5 6 5 6 3 10 8 7 9 4 6 3 6 8 9 10 11 13 14 15 16 17 17 16 16 17 15
5 3 4 2 2 2 2 3 1 4 6 3 5 5 2 4 6 4 3 3 1 4 6 4 4 10 7 4 2 3 4 6 7 9 12 14 16 19 17 14 18 19 18 17
3 3 2 3 3 4 4 4 5 5 5 7 6 5 3 3 3 1 4 3 4 1 3 5 8 9 7 6 4 5 6 7 9 11 10 9 12 13 16 15 15 16 15 18
2 3 3 4 5 3 3 3 2 6 8 5 3 5 5 4 4 4 4 3 3 3 3 4 5 6 7 7 7 7 7 8 6 8 10 14 7 8 11 14 15 15 16 16
2 4 5 4 5 7 6 7 3 5 6 2 4 4 3 3 4 4 4 2 3 3 3 3 3 7 8 6 6 7 8 9 9 10 10 9 13 7 8 12 14 14 16 17
3 4 3 4 5 6 5 7 7 9 8 3 2 4 3 4 3 3 5 4 4 2 2 3 3 6 6 7 7 7 8 9 10 11 12 13 8 13 9 8 11 13 13 14
Wind_Direction
341 348 351 350 353 349 358 301 277 72 266 242 235 245 264 29 285 212 255 260 284 288 260 189 234 229 213 179 210 193 219 251 224 203 212 218 243 216 232 241 249 262 267 250
338 349 351 349 354 1 332 303 289 226 248 259 244 228 256 265 271 250 244 237 239 252 268 249 236 203 157 160 200 219 216 230 252 238 155 211 231 235 227 235 246 243 258 250
340 348 349 346 352 355 341 286 291 177 225 289 290 299 310 281 200 280 290 271 272 257 251 261 249 239 147 188 229 34 302 245 241 250 233 203 197 231 241 249 234 234 241 258
340 345 346 346 350 350 330 272 30 16 290 152 320 305 289 294 282 229 276 267 246 249 245 241 236 249 182 189 159 224 232 248 258 285 284 294 209 204 226 238 256 271 252 246
337 343 344 347 353 350 256 319 343 349 290 279 268 256 259 270 266 264 275 259 276 225 245 258 310 237 237 190 179 225 222 253 277 290 234 247 256 211 213 221 234 256 275 285
332 335 341 345 354 355 325 4 300 276 290 278 267 265 296 269 342 285 254 295 335 278 316 331 307 301 300 292 250 207 226 234 249 243 240 219 241 222 235 223 216 241 254 250
317 326 336 343 348 357 323 350 308 280 274 270 270 313 308 294 285 285 299 315 288 281 333 308 279 261 265 266 266 252 219 220 246 241 231 218 245 216 208 220 224 243 239 264
331 328 317 323 334 340 326 317 310 299 278 282 288 274 270 289 281 260 259 260 268 293 295 288 257 247 239 239 242 255 258 234 233 248 220 216 235 152 211 229 248 259 260 245
318 325 327 322 318 315 315 295 297 304 298 320 358 308 294 282 279 274 267 266 251 288 272 261 250 230 220 219 224 234 251 244 252 253 239 250 224 189 100 75 242 56 16 8
314 312 309 306 306 298 296 287 288 272 282 283 293 285 333 329 309 285 295 315 299 242 247 243 244 239 237 225 216 213 225 251 240 235 254 250 84 16 159 214 81 56 29 9
309 306 303 300 294 277 265 280 266 244 252 287 289 285 282 278 268 270 340 300 212 267 251 237 242 244 234 231 224 219 205 223 239 248 249 239 144 173 220 94 104 63 32 355
303 303 306 305 300 279 247 269 265 235 237 281 296 283 275 278 286 286 288 297 314 321 289 272 293 274 256 245 221 215 218 215 221 235 245 118 113 81 93 80 107 106 88 349
300 299 300 297 299 280 251 252 274 268 269 274 257 260 259 246 244 247 261 262 267 282 8 313 298 269 288 283 247 204 207 248 250 221 121 123 105 106 95 78 89 82 65 350
302 298 296 295 292 279 262 235 248 229 281 278 285 299 288 292 255 239 231 252 282 294 327 295 277 276 34 295 305 209 266 166 234 128 87 114 140 85 82 80 57 44 17 338
308 305 302 297 284 269 260 246 245 233 210 286 285 304 283 267 269 250 242 234 243 257 267 255 264 283 270 253 247 49 201 189 200 241 165 201 125 101 94 68 49 35 353 325
313 317 309 302 260 261 256 300 250 238 213 264 288 307 281 275 264 249 229 235 229 239 245 252 268 277 292 287 243 222 179 190 37 92 64 92 116 105 66 64 39 23 339 336
311 328 312 287 265 221 198 299 40 62 181 260 289 269 8 332 290 238 216 212 229 227 225 245 266 296 279 274 281 279 65 43 87 101 121 149 168 127 55 22 17 332 331 359
303 310 328 286 266 242 268 254 256 261 188 223 261 285 309 303 254 236 182 186 210 225 228 228 222 242 244 247 258 63 11 136 113 133 236 24 74 277 256 328 330 331 326 346
286 288 298 257 225 238 234 292 262 218 223 237 241 240 289 294 272 242 183 181 203 224 208 234 242 216 226 210 266 269 189 226 18 210 261 348 261 279 285 285 285 288 295 311
286 291 221 238 201 288 293 235 192 201 198 218 249 201 242 279 198 229 173 190 209 199 206 201 232 241 205 256 257 270 294 311 308 281 269 267 265 266 268 277 285 285 291 293
239 217 221 267 296 280 223 263 223 163 238 214 232 200 242 256 237 223 191 188 220 206 174 205 215 222 230 230 254 261 275 276 268 264 268 269 270 270 272 270 267 266 277 278
309 295 272 231 223 247 257 241 250 216 274 185 280 98 235 273 178 223 210 197 212 187 136 185 207 214 220 55 336 280 276 284 286 287 283 272 267 268 267 266 264 263 262 269
256 243 228 217 173 285 255 297 332 294 335 322 321 318 263 283 214 244 328 249 140 168 191 194 79 114 92 92 37 293 285 285 285 290 286 278 276 273 263 264 265 264 262 256
242 235 260 252 225 244 195 214 215 230 239 269 280 276 264 272 281 192 275 277 230 138 239 110 119 94 84 63 28 36 9 359 345 318 302 287 278 269 264 259 260 261 257 251
270 256 242 220 261 282 251 270 188 236 241 252 248 255 251 273 259 199 226 250 223 213 105 118 99 69 57 43 14 16 11 1 4 355 338 326 294 271 261 252 252 252 251 251
252 251 254 315 336 349 1 326 8 285 322 89 288 283 263 286 296 295 232 265 27 63 75 82 61 43 39 37 3 359 349 351 352 352 341 328 321 311 276 263 254 245 236 231
253 277 280 277 285 320 330 304 327 341 311 339 312 294 350 288 263 290 18 9 79 100 9 122 66 25 3 344 340 343 339 333 339 337 336 326 344 315 295 276 264 253 237 228